Location: Apeadero de Los Molinos-Guadarrama
(40.7091°N, 4.0689°W)
Time: 16:24:47
(UTC+00:00)

CZ-4C R/B - Visible Passes

Search period start: 19 September 2021 00:00
Search period end: 29 September 2021 00:00
Orbit: 602 x 1399 km, 63.4° (Epoch: 18 September)

Date Brightness Start Highest point End Pass type
(mag) Time Alt. Az. Time Alt. Az. Time Alt. Az.
19 Sep 3.9 04:05:03 10° SSE 04:08:49 25° ESE 04:13:06 10° ENE visible
20 Sep 2.2 04:37:43 14° SSW 04:41:45 67° ESE 04:47:17 10° NE visible
21 Sep 4.0 03:25:34 16° SE 03:27:25 19° ESE 03:31:04 10° ENE visible
21 Sep 2.3 05:10:48 11° SW 05:15:11 51° NW 05:20:48 10° NNE visible
22 Sep 2.5 03:58:35 35° S 04:00:14 52° ESE 04:05:34 10° NE visible
23 Sep 4.4 02:46:18 15° ESE 02:46:18 15° ESE 02:48:49 10° ENE visible
23 Sep 2.0 04:31:30 34° WSW 04:33:32 64° NW 04:39:12 10° NNE visible
24 Sep 3.0 03:19:09 39° ESE 03:19:09 39° ESE 03:23:49 10° NE visible
24 Sep 3.1 05:04:21 17° W 05:07:20 30° NW 05:12:28 10° NNE visible
25 Sep 1.8 03:51:57 80° NW 03:51:57 80° NW 03:57:36 10° NNE visible
26 Sep 4.1 02:39:29 22° ENE 02:39:29 22° ENE 02:41:59 10° NE visible
26 Sep 2.7 04:24:41 33° WNW 04:25:36 35° NW 04:30:56 10° NNE visible
27 Sep 3.1 03:12:10 42° NE 03:12:10 42° NE 03:15:58 10° NE visible
27 Sep 3.7 04:57:22 15° WNW 04:59:44 19° NNW 05:03:58 10° NNE visible
28 Sep 4.9 01:59:38 12° ENE 01:59:38 12° ENE 02:00:04 10° ENE visible
28 Sep 2.9 03:44:49 39° NNW 03:44:49 39° NNW 03:49:23 10° NNE visible
28 Sep 4.2 05:32:01 10° NW 05:34:16 12° NNW 05:36:41 10° N visible
